Time,TemperatureF,DewpointF,PressureIn,WindDirection,WindDirectionDegrees,WindSpeedMPH,WindSpeedGustMPH,Humidity,HourlyPrecipIn,Conditions,Clouds,dailyrainin,SoftwareType,DateUTC
2013-04-11 00:03:00,43.0,42.0,29.79,ENE,70,10.0,10.0,96,0.72,,,1.10,,2013-04-11 04:03:00,
2013-04-11 00:12:00,43.0,42.0,29.79,ENE,70,10.0,10.0,96,0.82,,,1.92,,2013-04-11 04:12:00,
2013-04-11 00:22:00,43.0,42.0,29.79,ENE,70,10.0,10.0,96,0.82,,,1.92,,2013-04-11 04:22:00,
2013-04-11 00:33:00,43.0,42.0,29.74,East,80,24.0,24.0,96,0.82,,,1.92,,2013-04-11 04:33:00,
2013-04-11 00:42:00,43.0,42.0,29.74,East,80,24.0,24.0,96,0.82,,,1.92,,2013-04-11 04:42:00,
2013-04-11 00:53:00,43.0,42.0,29.74,East,80,24.0,24.0,96,0.82,,,1.92,,2013-04-11 04:53:00,
2013-04-11 01:02:00,44.0,42.0,29.72,East,80,20.0,35.0,92,0.82,,,1.92,,2013-04-11 05:02:00,
2013-04-11 01:13:00,44.0,42.0,29.72,East,80,20.0,35.0,92,0.82,,,1.92,,2013-04-11 05:13:00,
2013-04-11 01:22:00,44.0,42.0,29.72,East,80,20.0,35.0,92,0.05,,,1.97,,2013-04-11 05:22:00,
2013-04-11 01:32:00,44.0,42.0,29.69,East,80,26.0,37.0,92,0.05,,,1.97,,2013-04-11 05:32:00,
2013-04-11 01:42:00,44.0,42.0,29.69,East,80,26.0,37.0,92,0.05,,,1.97,,2013-04-11 05:42:00,
2013-04-11 01:52:00,44.0,42.0,29.69,East,80,26.0,37.0,92,0.05,,,1.97,,2013-04-11 05:52:00,
2013-04-11 02:02:00,44.0,42.0,29.69,East,80,26.0,37.0,92,0.05,,,1.97,,2013-04-11 06:02:00,
2013-04-11 02:12:00,44.0,42.0,29.69,East,80,26.0,37.0,92,0.05,,,1.97,,2013-04-11 06:12:00,
2013-04-11 02:22:00,44.0,42.0,29.69,East,80,26.0,37.0,92,0.05,,,2.02,,2013-04-11 06:22:00,
2013-04-11 02:32:00,45.0,43.0,29.64,East,80,22.0,38.0,92,0.05,,,2.02,,2013-04-11 06:32:00,
2013-04-11 02:42:00,45.0,43.0,29.64,East,80,22.0,38.0,92,0.05,,,2.02,,2013-04-11 06:42:00,
2013-04-11 02:52:00,45.0,43.0,29.64,East,80,22.0,38.0,92,0.05,,,2.02,,2013-04-11 06:52:00,
2013-04-11 03:02:00,45.0,43.0,29.64,East,80,22.0,38.0,92,0.05,,,2.02,,2013-04-11 07:02:00,
2013-04-11 03:12:00,45.0,43.0,29.64,East,80,22.0,38.0,92,0.05,,,2.02,,2013-04-11 07:12:00,
2013-04-11 03:22:00,45.0,43.0,29.64,East,80,22.0,38.0,92,0.00,,,2.02,,2013-04-11 07:22:00,
2013-04-11 03:32:00,45.0,43.0,29.66,East,90,22.0,38.0,92,0.00,,,2.02,,2013-04-11 07:32:00,
2013-04-11 03:42:00,45.0,43.0,29.66,East,90,22.0,38.0,92,0.00,,,2.02,,2013-04-11 07:42:00,
2013-04-11 03:52:00,45.0,43.0,29.65,East,90,21.0,29.0,92,0.00,,,2.02,,2013-04-11 07:52:00,
2013-04-11 04:02:00,45.0,43.0,29.65,East,90,21.0,29.0,92,0.00,,,2.02,,2013-04-11 08:02:00,
2013-04-11 04:12:00,45.0,43.0,29.65,East,90,21.0,29.0,92,0.00,,,2.02,,2013-04-11 08:12:00,
2013-04-11 04:22:00,46.0,44.0,29.66,ESE,110,9.0,29.0,92,0.01,,,2.03,,2013-04-11 08:22:00,
2013-04-11 04:32:00,46.0,44.0,29.66,East,100,9.0,9.0,92,0.01,,,2.03,,2013-04-11 08:32:00,
2013-04-11 04:42:00,46.0,44.0,29.66,East,100,9.0,9.0,92,0.01,,,2.03,,2013-04-11 08:42:00,
2013-04-11 04:52:00,46.0,44.0,29.66,East,100,9.0,9.0,92,0.01,,,2.03,,2013-04-11 08:52:00,
2013-04-11 05:02:00,46.0,44.0,29.66,East,100,9.0,9.0,92,0.01,,,2.03,,2013-04-11 09:02:00,
2013-04-11 05:12:00,46.0,44.0,29.66,East,100,9.0,9.0,92,0.01,,,2.04,,2013-04-11 09:12:00,
2013-04-11 05:22:00,46.0,44.0,29.66,East,100,9.0,9.0,92,0.01,,,2.04,,2013-04-11 09:22:00,
2013-04-11 05:33:00,46.0,44.0,29.61,East,90,10.0,10.0,92,0.01,,,2.04,,2013-04-11 09:33:00,
2013-04-11 05:43:00,46.0,44.0,29.61,East,90,10.0,10.0,92,0.01,,,2.04,,2013-04-11 09:43:00,
2013-04-11 05:53:00,46.0,44.0,29.61,East,90,10.0,10.0,92,0.01,,,2.04,,2013-04-11 09:53:00,
2013-04-11 06:02:00,46.0,44.0,29.61,East,90,10.0,10.0,92,0.01,,,2.04,,2013-04-11 10:02:00,
2013-04-11 06:12:00,45.0,45.0,29.62,East,90,6.0,10.0,100,0.01,,,2.05,,2013-04-11 10:12:00,
2013-04-11 06:23:00,45.0,45.0,29.62,East,90,6.0,10.0,100,0.01,,,2.05,,2013-04-11 10:23:00,
2013-04-11 06:32:00,45.0,44.0,29.61,East,80,6.0,6.0,96,0.01,,,2.05,,2013-04-11 10:32:00,
2013-04-11 06:42:00,45.0,44.0,29.61,East,80,6.0,6.0,96,0.01,,,2.05,,2013-04-11 10:42:00,
2013-04-11 06:52:00,45.0,44.0,29.62,East,80,6.0,6.0,96,0.01,,,2.05,,2013-04-11 10:52:00,
2013-04-11 07:02:00,45.0,44.0,29.62,East,80,6.0,6.0,96,0.01,,,2.05,,2013-04-11 11:02:00,
2013-04-11 07:12:00,45.0,44.0,29.62,East,80,6.0,6.0,96,0.01,,,2.05,,2013-04-11 11:12:00,
2013-04-11 07:22:00,45.0,44.0,29.62,East,80,6.0,6.0,96,0.01,,,2.06,,2013-04-11 11:22:00,
2013-04-11 07:32:00,45.0,44.0,29.64,West,280,6.0,6.0,96,0.01,,,2.06,,2013-04-11 11:32:00,
2013-04-11 07:42:00,45.0,45.0,29.63,West,280,0.0,6.0,100,0.01,,,2.06,,2013-04-11 11:42:00,
2013-04-11 07:52:00,45.0,45.0,29.63,West,280,0.0,6.0,100,0.01,,,2.06,,2013-04-11 11:52:00,
2013-04-11 08:02:00,45.0,44.0,29.63,West,280,0.0,0.0,96,0.01,,,2.06,,2013-04-11 12:02:00,
2013-04-11 08:12:00,45.0,44.0,29.63,West,280,0.0,0.0,96,0.02,,,2.08,,2013-04-11 12:12:00,
2013-04-11 08:22:00,45.0,44.0,29.63,West,280,0.0,0.0,96,0.02,,,2.08,,2013-04-11 12:22:00,
2013-04-11 08:32:00,46.0,44.0,29.62,ENE,60,6.0,6.0,92,0.02,,,2.08,,2013-04-11 12:32:00,
2013-04-11 08:42:00,46.0,44.0,29.62,ENE,60,6.0,6.0,92,0.02,,,2.08,,2013-04-11 12:42:00,
2013-04-11 08:52:00,46.0,45.0,29.63,ENE,60,0.0,6.0,95,0.02,,,2.08,,2013-04-11 12:52:00,
2013-04-11 09:02:00,46.0,45.0,29.63,ENE,60,0.0,0.0,95,0.02,,,2.08,,2013-04-11 13:02:00,
2013-04-11 09:12:00,46.0,45.0,29.63,ENE,60,0.0,0.0,95,0.01,,,2.09,,2013-04-11 13:12:00,
2013-04-11 09:23:00,46.0,45.0,29.63,ENE,60,0.0,0.0,95,0.01,,,2.09,,2013-04-11 13:23:00,
2013-04-11 09:32:00,46.0,45.0,29.63,ENE,60,0.0,0.0,95,0.01,,,2.09,,2013-04-11 13:32:00,
2013-04-11 09:43:00,46.0,45.0,29.63,ENE,60,0.0,0.0,95,0.01,,,2.09,,2013-04-11 13:43:00,
2013-04-11 09:54:00,46.0,45.0,29.65,West,260,3.0,3.0,95,0.01,,,2.09,,2013-04-11 13:54:00,
2013-04-11 10:02:00,47.0,46.0,29.64,SSW,210,3.0,3.0,96,0.01,,,2.09,,2013-04-11 14:02:00,
2013-04-11 10:12:00,47.0,46.0,29.64,SSW,210,3.0,3.0,96,0.00,,,2.09,,2013-04-11 14:12:00,
2013-04-11 10:22:00,47.0,46.0,29.64,SSW,210,3.0,3.0,96,0.00,,,2.09,,2013-04-11 14:22:00,
2013-04-11 10:32:00,47.0,45.0,29.63,West,270,12.0,12.0,92,0.00,,,2.07,,2013-04-11 14:32:00,
2013-04-11 10:42:00,47.0,45.0,29.63,West,270,12.0,12.0,92,0.00,,,2.07,,2013-04-11 14:42:00,
2013-04-11 10:52:00,47.0,45.0,29.63,West,270,12.0,12.0,92,0.00,,,2.07,,2013-04-11 14:52:00,
2013-04-11 11:02:00,47.0,45.0,29.63,West,270,12.0,12.0,92,0.00,,,2.07,,2013-04-11 15:02:00,
2013-04-11 11:12:00,47.0,45.0,29.63,West,270,12.0,12.0,92,0.00,,,2.05,,2013-04-11 15:12:00,
2013-04-11 11:22:00,47.0,45.0,29.63,West,270,12.0,12.0,92,0.00,,,2.05,,2013-04-11 15:22:00,
2013-04-11 11:32:00,48.0,45.0,29.61,West,260,10.0,12.0,89,0.00,,,2.05,,2013-04-11 15:32:00,
2013-04-11 11:43:00,48.0,45.0,29.61,West,260,10.0,12.0,89,0.00,,,2.05,,2013-04-11 15:43:00,
2013-04-11 11:53:00,48.0,45.0,29.61,West,260,10.0,10.0,89,0.00,,,2.05,,2013-04-11 15:53:00,
2013-04-11 12:02:00,48.0,44.0,29.63,West,260,9.0,10.0,86,0.00,,,2.05,,2013-04-11 16:02:00,
2013-04-11 12:12:00,48.0,44.0,29.63,West,260,9.0,10.0,86,0.00,,,2.05,,2013-04-11 16:12:00,
2013-04-11 12:23:00,48.0,44.0,29.63,West,260,9.0,9.0,86,0.00,,,2.04,,2013-04-11 16:23:00,
2013-04-11 12:32:00,49.0,44.0,29.63,West,270,10.0,10.0,83,0.00,,,2.04,,2013-04-11 16:32:00,
2013-04-11 12:42:00,49.0,44.0,29.63,West,270,10.0,10.0,83,0.00,,,2.04,,2013-04-11 16:42:00,
2013-04-11 12:53:00,49.0,44.0,29.63,West,270,10.0,10.0,83,0.00,,,2.04,,2013-04-11 16:53:00,
2013-04-11 13:02:00,50.0,44.0,29.63,WNW,290,8.0,10.0,79,0.00,,,2.04,,2013-04-11 17:02:00,
2013-04-11 13:12:00,50.0,44.0,29.63,WNW,290,8.0,10.0,79,0.00,,,2.04,,2013-04-11 17:12:00,
2013-04-11 13:23:00,50.0,44.0,29.63,WNW,290,8.0,8.0,79,0.00,,,2.02,,2013-04-11 17:23:00,
2013-04-11 13:32:00,50.0,43.0,29.62,West,270,13.0,13.0,76,0.00,,,2.02,,2013-04-11 17:32:00,
2013-04-11 13:42:00,50.0,43.0,29.62,West,270,13.0,13.0,76,0.00,,,2.02,,2013-04-11 17:42:00,
2013-04-11 13:53:00,50.0,43.0,29.62,West,270,13.0,13.0,76,0.00,,,2.02,,2013-04-11 17:53:00,
2013-04-11 14:02:00,50.0,43.0,29.62,West,270,13.0,13.0,76,0.00,,,2.02,,2013-04-11 18:02:00,
2013-04-11 14:13:00,50.0,43.0,29.62,West,270,13.0,13.0,76,0.00,,,2.02,,2013-04-11 18:13:00,
2013-04-11 14:23:00,50.0,43.0,29.62,West,270,13.0,13.0,76,0.00,,,1.92,,2013-04-11 18:23:00,
2013-04-11 14:32:00,49.0,43.0,29.63,West,260,10.0,13.0,79,0.00,,,1.92,,2013-04-11 18:32:00,
2013-04-11 14:42:00,49.0,43.0,29.63,West,260,10.0,13.0,79,0.00,,,1.92,,2013-04-11 18:42:00,
2013-04-11 14:53:00,48.0,45.0,29.63,WSW,250,7.0,10.0,89,0.00,,,1.92,,2013-04-11 18:53:00,
2013-04-11 15:03:00,48.0,45.0,29.63,WSW,250,7.0,7.0,89,0.00,,,1.92,,2013-04-11 19:03:00,
2013-04-11 15:13:00,48.0,45.0,29.63,WSW,250,7.0,7.0,89,0.00,,,1.92,,2013-04-11 19:13:00,
2013-04-11 15:22:00,48.0,45.0,29.63,WSW,250,7.0,7.0,89,0.00,,,1.80,,2013-04-11 19:22:00,
2013-04-11 15:32:00,48.0,45.0,29.64,SW,220,10.0,10.0,89,0.00,,,1.80,,2013-04-11 19:32:00,
2013-04-11 15:42:00,48.0,45.0,29.64,SW,220,10.0,10.0,89,0.00,,,1.80,,2013-04-11 19:42:00,
2013-04-11 15:53:00,48.0,45.0,29.64,WSW,240,10.0,10.0,89,0.00,,,1.80,,2013-04-11 19:53:00,
2013-04-11 16:02:00,48.0,45.0,29.64,WSW,240,10.0,10.0,89,0.00,,,1.80,,2013-04-11 20:02:00,
2013-04-11 16:13:00,48.0,45.0,29.64,WSW,240,10.0,10.0,89,0.00,,,1.80,,2013-04-11 20:13:00,
2013-04-11 16:22:00,48.0,45.0,29.63,SW,230,10.0,10.0,89,0.01,,,1.81,,2013-04-11 20:22:00,
2013-04-11 16:33:00,47.0,45.0,29.63,WSW,240,12.0,12.0,92,0.01,,,1.81,,2013-04-11 20:33:00,
2013-04-11 16:42:00,47.0,45.0,29.63,WSW,240,12.0,12.0,92,0.01,,,1.81,,2013-04-11 20:42:00,
2013-04-11 16:52:00,47.0,45.0,29.63,WSW,240,12.0,12.0,92,0.01,,,1.81,,2013-04-11 20:52:00,
2013-04-11 17:02:00,47.0,43.0,29.62,WSW,250,12.0,12.0,86,0.01,,,1.81,,2013-04-11 21:02:00,
2013-04-11 17:12:00,47.0,43.0,29.62,WSW,250,12.0,12.0,86,0.01,,,1.81,,2013-04-11 21:12:00,
2013-04-11 17:22:00,47.0,43.0,29.62,WSW,250,12.0,12.0,86,0.00,,,1.81,,2013-04-11 21:22:00,
2013-04-11 17:33:00,47.0,41.0,29.62,WSW,250,10.0,12.0,79,0.00,,,1.79,,2013-04-11 21:33:00,
2013-04-11 17:42:00,47.0,41.0,29.62,WSW,250,10.0,12.0,79,0.00,,,1.79,,2013-04-11 21:42:00,
2013-04-11 17:54:00,47.0,41.0,29.62,WSW,250,10.0,10.0,79,0.00,,,1.79,,2013-04-11 21:54:00,
2013-04-11 18:03:00,44.0,40.0,29.63,West,260,14.0,26.0,85,0.00,,,1.79,,2013-04-11 22:03:00,
2013-04-11 18:13:00,44.0,40.0,29.63,West,260,14.0,26.0,85,0.00,,,1.79,,2013-04-11 22:13:00,
2013-04-11 18:23:00,44.0,40.0,29.63,West,260,14.0,26.0,85,0.00,,,1.77,,2013-04-11 22:23:00,
2013-04-11 18:33:00,44.0,38.0,29.63,West,270,12.0,26.0,78,0.00,,,1.77,,2013-04-11 22:33:00,
2013-04-11 18:44:00,44.0,38.0,29.63,West,270,12.0,26.0,78,0.00,,,1.77,,2013-04-11 22:44:00,
2013-04-11 18:53:00,44.0,38.0,29.63,West,270,12.0,12.0,78,0.00,,,1.77,,2013-04-11 22:53:00,
2013-04-11 19:03:00,44.0,38.0,29.63,West,270,12.0,12.0,78,0.00,,,1.77,,2013-04-11 23:03:00,
2013-04-11 19:12:00,44.0,38.0,29.63,West,270,12.0,12.0,78,0.00,,,1.77,,2013-04-11 23:12:00,
2013-04-11 19:23:00,44.0,38.0,29.63,West,270,12.0,12.0,78,0.00,,,1.76,,2013-04-11 23:23:00,
2013-04-11 19:32:00,45.0,36.0,29.63,WSW,250,12.0,12.0,70,0.00,,,1.76,,2013-04-11 23:32:00,
2013-04-11 19:42:00,45.0,36.0,29.63,WSW,250,12.0,12.0,70,0.00,,,1.76,,2013-04-11 23:42:00,
2013-04-11 19:53:00,45.0,36.0,29.63,WSW,250,12.0,12.0,70,0.00,,,1.76,,2013-04-11 23:53:00,
2013-04-11 20:02:00,45.0,36.0,29.63,WSW,250,12.0,12.0,70,0.00,,,1.76,,2013-04-12 00:02:00,
2013-04-11 20:12:00,45.0,36.0,29.63,WSW,250,12.0,12.0,70,0.00,,,1.76,,2013-04-12 00:12:00,
2013-04-11 20:22:00,45.0,36.0,29.63,WSW,250,12.0,12.0,70,0.00,,,1.76,,2013-04-12 00:22:00,
2013-04-11 20:32:00,42.0,33.0,29.64,WSW,250,14.0,14.0,70,0.00,,,1.76,,2013-04-12 00:32:00,
2013-04-11 20:42:00,42.0,33.0,29.64,WSW,250,14.0,14.0,70,0.00,,,1.76,,2013-04-12 00:42:00,
2013-04-11 20:53:00,42.0,33.0,29.64,WSW,250,14.0,14.0,70,0.00,,,1.76,,2013-04-12 00:53:00,
2013-04-11 21:02:00,42.0,33.0,29.64,WSW,250,14.0,14.0,70,0.00,,,1.76,,2013-04-12 01:02:00,
2013-04-11 21:12:00,42.0,33.0,29.64,WSW,250,14.0,14.0,70,0.00,,,1.76,,2013-04-12 01:12:00,
2013-04-11 21:22:00,41.0,32.0,29.65,WSW,240,14.0,14.0,70,0.00,,,1.76,,2013-04-12 01:22:00,
2013-04-11 21:32:00,41.0,32.0,29.64,West,260,13.0,14.0,70,0.00,,,1.75,,2013-04-12 01:32:00,
2013-04-11 21:42:00,41.0,32.0,29.64,West,260,13.0,14.0,70,0.00,,,1.75,,2013-04-12 01:42:00,
2013-04-11 21:52:00,41.0,32.0,29.64,West,260,13.0,13.0,70,0.00,,,1.75,,2013-04-12 01:52:00,
2013-04-11 22:03:00,41.0,32.0,29.64,West,260,12.0,13.0,70,0.00,,,1.75,,2013-04-12 02:03:00,
2013-04-11 22:12:00,41.0,32.0,29.64,West,260,12.0,13.0,70,0.00,,,1.75,,2013-04-12 02:12:00,
2013-04-11 22:22:00,41.0,32.0,29.64,West,260,12.0,12.0,70,0.00,,,1.72,,2013-04-12 02:22:00,
2013-04-11 22:32:00,40.0,32.0,29.65,West,260,15.0,15.0,73,0.00,,,1.72,,2013-04-12 02:32:00,
2013-04-11 22:42:00,40.0,32.0,29.65,West,260,15.0,15.0,73,0.00,,,1.72,,2013-04-12 02:42:00,
2013-04-11 22:52:00,40.0,32.0,29.65,West,260,15.0,15.0,73,0.00,,,1.72,,2013-04-12 02:52:00,
2013-04-11 23:02:00,40.0,32.0,29.65,West,260,15.0,15.0,73,0.00,,,1.72,,2013-04-12 03:02:00,
2013-04-11 23:12:00,40.0,32.0,29.65,West,260,15.0,15.0,73,0.00,,,1.72,,2013-04-12 03:12:00,
2013-04-11 23:22:00,40.0,32.0,29.65,West,260,15.0,15.0,73,0.00,,,1.00,,2013-04-12 03:22:00,
2013-04-11 23:33:00,39.0,31.0,29.66,West,260,14.0,15.0,72,0.00,,,1.00,,2013-04-12 03:33:00,
2013-04-11 23:43:00,39.0,31.0,29.66,West,260,14.0,15.0,72,0.00,,,1.00,,2013-04-12 03:43:00,
2013-04-11 23:53:00,39.0,31.0,29.66,West,260,14.0,14.0,72,0.00,,,1.00,,2013-04-12 03:53:00,